Погода Амангелды

Хотите узнать прогноз погоды Амангелды? Тогда Вам сюда: Погода Амангелды

Поиск расширенной информации на нашем сайте:

Полезная информация:

Новости сайта



02.01.2020
Опубликован Долгосрочный прогноз погоды по городам России и ближнего зарубежья на январь 2020 года.
Карты: Прогноз на январь и февраль 2020 года, Сравнение прогнозируемой аномалии приземной температуры воздуха на январь 2020 года по разным моделям.




Погода Амангелды - сегодня

Время (UTC), дата Ветер
(°,м/с) 
Видим.   Явления Облачность Т
(°С)
Тd
(°С)
f(%) Тe
(°С)
Pmin
(гПа)
dP
(гПа)
Po
(мм)
O2
(г/м3)
Тmin Tmax R s Состояние
почвы
09 22.10.21 180 (Ю) 10 км    10/10 600 м кучево-дожд. 
[Cb cap]
+2.2 -0.8 81 -1  1018  -1.6  750  300           
12 22.10.21 200 (Ю) 10 км  слаб. ливневой дождь  10/10 600 м кучево-дожд. 
[Cb cap]
+3.2 +0.6 83 1019.5  1.7  751  299           
15 22.10.21 200 (Ю) н/о    10/10 600 м кучево-дожд. 
[Cb cap]
+4.4 +0.8 77 +2  1020.6  1.1  752  298    +4.8     
18 22.10.21 200 (Ю) н/о    10/10 600 м кучево-дожд. 
[Cb cap]
+5.7 +1.4 74 +4  1020.6  0.1  752  297    +4.8     
21 22.10.21 200 (Ю) н/о    8/0 средняя 
[Ac trans]
+5.4 +0.5 71 +2  1020.9  0.3  753  297           
00 23.10.21 200 (Ю) н/о    5/0 средняя 
[Ac trans]
+4.2 -1 69 +1  1021.1  0.4  753  299           
03 23.10.21 200 (Ю) 10 км    ясно 
+3.5 -2.5 65 +1  1022.1  753  300           
06 23.10.21 180 (Ю) 20000 м    ясно 
+9.2 +3.8 69 +7  1022.3  0.5  754  293  +3.4         
09 23.10.21 180 (Ю) 20000 м    ясно 
+13.4 +5.1 57 +12  1021.8  -0.2  754  289           
12 23.10.21 200 (Ю) 10 км    ясно 
+15 +7.8 62 +14  1021.8  754  287           
15 23.10.21 180 (Ю) н/о    ясно 
+12.8 +7.3 69 +12  1022.9  0.8  754  289    +15.5       
18 23.10.21 180 (Ю) н/о    ясно 
+9.3 +4.6 72 +8  1024.2  1.3  755  294    +15.5       
21 23.10.21 180 (Ю) н/о    8/0 средняя 
[Ac As]
+8.9 +4.6 74 +7  1025.2  0.8  756  294           
00 24.10.21 180 (Ю) н/о    8/0 средняя 
[Ac trans]
+9 +3.8 70 +8  1025.2  0.1  756  294           
03 24.10.21 200 (Ю) 10 км    5/0 средняя 
[Ac As]
+6.9 +0.6 64 +6  1025.4  756  297           
06 24.10.21 200 (Ю) 20000 м    ясно 
+11.3 -1.7 40 +11  1025  755  293  +6.8         
09 24.10.21 200 (Ю) 20000 м    ясно 
+14.3 +0.6 39 +14  1023.4  -1.4  755  289           
12 24.10.21 200 (Ю) 20000 м    ясно 
+13.1 +0.2 41 +13  1022.4  -1.1  754  290           
15 24.10.21 200 (Ю) н/о    ясно 
+7.9 -3.6 44 +7  1022.5  -0.7  754  296    +14.8       
18 24.10.21 200 (Ю) н/о    ясно 
+6.2 -4.2 47 +5  1021  -1.6  753  297    +14.8       
21 24.10.21 200 (Ю) н/о    4/0 средняя 
[Ac trans]
+4.9 -4.2 52 +4  1020.2  -0.9  752  298           
00 25.10.21 200 (Ю) н/о    4/0 средняя 
[Ac lent]
+2.7 -5 57 +1  1019.6  -0.7  751  300           
03 25.10.21 200 (Ю) 10 км    8/0 средняя 
[Ac trans]
+4.4 -4.7 52 +3  1018.9  -0.6  751  298           
06 25.10.21 180 (Ю) 20000 м    6/0 верхняя 
[Ci fib]
+10.4 -0.2 48 +11  1017.9  -0.7  750  291  +2.6         
09 25.10.21 180 (Ю) 20000 м    9/0 средняя 
[Ac As]
+15 -1.2 33 +15  1015.4  -2.1  749  286           
Время (UTC), дата Ветер
(°,м/с) 
Видим.   Явления Облачность Т
(°С)
Тd
(°С)
f(%) Тe
(°С)
Pmin
(гПа)
dP
(гПа)
Po
(мм)
O2
(г/м3)
Тmin Tmax R s Состояние
почвы

Для получения пояснительной информации подведите курсор к названию столбца.

ПОГОДА Амангелды - архив

Всё, что Вы хотите узнать о погоде Амангелды - удобно и подробно!

Выберите нужную дату (начиная с 1 января 2019* года) и нажмите кнопку "Найти".
Будут отображены архивные сводки погоды по пункту Амангелды, начиная с указанной даты.


Отображать данные в формате CSV (для использования в таблицах Excel)


Внимание! Наш архив погоды предназначен исключительно для личного некоммерческого использования в познавательных целях. Если Вам необходимы официальные справки о состоянии погоды (для производственных, юридических, коммерческих и т.п. целей), обращайтесь в органы Росгидромета.

*Примечание: данная дата относится к архиву по метеостанциям СССР (Россия, СНГ, Балтия).
Архив по метеостанциям Зарубежной Европы и Азии (кроме Китая) хранится 10 дней, по другим регионам земного шара (Китай, Африка, Америка, Австралия, Океания) - 1 день.

Амангелды - район местоположения метеостанции


Название, широта, долгота, высота метеостанции:
Амангелды 50.1°ш. 65.2°д. 142 м над ур. моря [Казахстан]

Дополнительная информация

В oтличие oт бoльшинства пoгoдных сайтoв мы публикуем пoдрoбную метеoинфoрмацию в детальнoм прoфессиoнальнoм фoрмате.

Характеристики температуры и влажнoсти вoздуха измеряются на высoте 2 м в тени вдали oт зданий и деревьев.
Скoрoсть ветра измеряется на высoте 10 м (на урoвне рoста челoвека скoрoсть ветра ниже в 1.5-2 раза). Если метеoстанция нахoдится в гoрoде или в лесу, тo скoрoсть ветра занижена на 2-4 м/с пo сравнению с oткрытым местoм. Скoрoсть ветра над акватoриями крупных рек и oзёр, а также на вершинах хoлмoв на 2-5 м/с выше, чем в oбычных услoвиях.
Атмoсфернoе давление в разных тoчках местнoсти мoжет значительнo oтличаться oт давления на метеoстанции, в зависимoсти oт услoвий рельефа (при пoдъёме на 10 м давление пoнижается примернo на 1 мм рт.ст.).